Location: ??
(35.5052°N, 139.7262°E)
Time: 16:54:18
(UTC+00:00)

Okean 3 Rocket - Pass Details

Date: 20 June 2021
Orbit: 616 x 644 km, 82.5° (Epoch: 30 July)

Event Time Altitude Azimuth Distance (km) Brightness Sun altitude
Exits shadow 17:46:30 30° 243° (WSW) 1,102 4.3 -16.8°
Maximum altitude 17:47:48 37° 281° (W) 956 4.2 -16.6°
Drops below altitude 10° 17:51:53 10° 349° (N) 1,983 6.6 -16.0°
Sets 17:54:15 0° 358° (N) 2,892 7.7 -15.7°
